Home   Weather   Halmstad   Past weeks

Flag for Sweden Past Weather in Halmstad, Sweden — Yesterday and Last 2 Weeks

Now
39 °F

Passing clouds.


Feels Like: 32 °F
Forecast: 35 / 48 °F
Wind: 10 mph from Northwest

Location: Halmstad Swedish Air Force Base

Current Time: Apr 25, 2017 at 10:28:01 pm

Latest Report: Apr 25, 2017 at 9:50 pm


Visibility: N/A

Pressure: 29.56 "Hg

Humidity: 81%

Dew Point: 34 °F

Location of HalmstadLocation

Past Weather in Halmstad — Graph

°F

Halmstad Temperature Yesterday

Maximum temperature yesterday: 48 °F (at 2:50 pm)
Minimum temperature yesterday: 39 °F (at 1:20 am)
Average temperature yesterday: 42 °F

High & Low Weather Summary for the Past Weeks

 TemperatureHumidityPressure
High50 °F (Apr 12, 2:50 pm)100% (Apr 12, 1:50 am)30.60 "Hg (Apr 12, 1:50 am)
Low27 °F (Apr 16, 5:50 am)36% (Apr 18, 3:50 pm)29.45 "Hg (Apr 25, 7:20 am)
Average41 °F73%29.88 "Hg
* Reported Apr 10 8:20 pm — Apr 25 8:50 pm, Halmstad, Weather by CustomWeather, © 2017

Note: Actual official high and low records may vary slightly from our data, if they occured in-between our weather recording intervals... More about our weather records

Advertising

Halmstad Weather History for the Previous 24 Hours

Scroll right to see more
 ConditionsComfort  
Time TempWeatherWind HumidityBarometerVisibility
8:50 pm
Tue, Apr 25
39 °FSprinkles. Partly cloudy.13 mph87%29.53 "HgN/A
8:20 pm37 °FBroken clouds.10 mph87%29.53 "HgN/A
7:50 pm39 °FPartly sunny.14 mph81%29.53 "HgN/A
7:20 pm39 °FScattered clouds.15 mph87%29.53 "HgN/A
6:50 pm41 °FBroken clouds.14 mph81%29.50 "HgN/A
6:20 pm39 °FBroken clouds.16 mph81%29.50 "HgN/A
5:50 pm37 °FSprinkles. Broken clouds.16 mph93%29.50 "Hg4 mi
4:50 pm39 °FBroken clouds.20 mph87%29.50 "HgN/A
4:20 pm41 °FScattered showers. Broken clouds.16 mph87%29.50 "HgN/A
3:50 pm39 °FSprinkles. Broken clouds.21 mph81%29.50 "HgN/A
3:20 pm43 °FScattered clouds.20 mph71%29.47 "HgN/A
2:50 pm43 °FScattered clouds.24 mph66%29.47 "HgN/A
2:20 pm43 °FBroken clouds.21 mph66%29.47 "HgN/A
1:50 pm45 °FScattered clouds.22 mph61%29.47 "HgN/A
1:20 pm43 °FPassing clouds.21 mph66%29.47 "HgN/A
12:50 pm41 °FScattered clouds.18 mph76%29.47 "HgN/A
12:20 pm43 °FBroken clouds.22 mph66%29.47 "HgN/A
11:50 am43 °FBroken clouds.23 mph66%29.45 "HgN/A
11:20 am43 °FBroken clouds.20 mph61%29.45 "HgN/A
10:50 am43 °FScattered clouds.21 mph61%29.45 "HgN/A
10:20 am43 °FScattered clouds.21 mph61%29.45 "HgN/A
9:50 am41 °FScattered clouds.20 mph66%29.45 "HgN/A
9:20 am41 °FBroken clouds.17 mph66%29.45 "HgN/A
8:50 am41 °FBroken clouds.18 mph61%29.45 "HgN/A
8:20 am41 °FBroken clouds.18 mph61%29.45 "HgN/A
7:50 am39 °FPartly sunny.17 mph65%29.45 "HgN/A
7:20 am39 °FBroken clouds.17 mph70%29.45 "HgN/A
6:50 am37 °FBroken clouds.17 mph70%29.47 "HgN/A
6:20 am37 °FBroken clouds.17 mph70%29.47 "HgN/A
5:50 am37 °FBroken clouds.16 mph70%29.47 "HgN/A
5:20 am37 °FPartly cloudy.15 mph70%29.47 "HgN/A
4:20 am39 °FPassing clouds.17 mph65%29.47 "HgN/A
3:50 am39 °FPartly cloudy.18 mph65%29.47 "HgN/A
3:20 am37 °FPartly cloudy.18 mph70%29.50 "HgN/A
2:50 am37 °FPartly cloudy.20 mph70%29.50 "HgN/A
2:20 am37 °FPassing clouds.21 mph70%29.50 "HgN/A
1:50 am39 °FPassing clouds.21 mph65%29.50 "HgN/A
1:20 am39 °FPassing clouds.21 mph65%29.50 "HgN/A
12:50 am39 °FPassing clouds.21 mph61%29.50 "HgN/A
12:20 am39 °FPassing clouds.21 mph65%29.53 "HgN/A
11:50 pm
Mon, Apr 24
39 °FPassing clouds.21 mph61%29.53 "HgN/A
11:20 pm39 °FPartly cloudy.21 mph65%29.53 "HgN/A
10:50 pm39 °FPassing clouds.23 mph61%29.53 "HgN/A
10:20 pm39 °FPassing clouds.23 mph61%29.53 "HgN/A
Weather by CustomWeather, © 2017

See weather overviewHow to use our weather pages